Weather

Current Metar report

KALM 251955Z AUTO 22004KT 10SM CLR 15/M08 A3012 RMK AO2


Metar history is on Flightaware.

KALM AWOS Info
Phone Number: 575-439-4112
Freq: 127.825 MHz

KALM Weather Links

Soaring Forecasts Links